Tracking 25686 objects as of 25-May-2022
HD Live streaming from Space Station
objects crossing your sky now

SL-14 DEB

Track SL-14 DEB now!
10-day predictions


NORAD ID: 26030
Int'l Code: 1991-068AU
Perigee: 1,338.3 km
Apogee: 1,466.7 km
Inclination: 82.7 °
Period: 113.7 minutes
Semi major axis: 7773 km
RCS: 0.0026 m2 (small)
Launch date: September 28, 1991
Source: Commonwealth of Independent States (former USSR) (CIS)
Launch site: PLESETSK MISSILE AND SPACE COMPLEX (PKMTR)

Note: This is SATELLITE DEBRIS
aabbcc
Your satellite tracking list
Your tracking list is empty




NASA's NSSDC Master Catalog

Two Line Element Set (TLE):
1 26030U 91068AU  22144.06223588  .00000142  00000-0  67945-3 0  9993
2 26030  82.6766 261.0134 0082571  86.3031  37.2281 12.66709741404531
Source of the keplerian elements: AFSPC